Theta_e
287 287 287 286 286 286 285 285 285 285 284 284 283 283 283 282 282 283 282 282 282 282 282 282 283 283 283 283 283 283 283 283 283 283 283 283 283 283 283 283 282 282
287 287 286 286 286 286 286 286 285 285 284 284 283 283 283 283 283 282 282 282 282 282 282 282 282 282 282 283 283 283 283 283 283 283 283 283 282 282 282 282 282 282
286 286 286 286 286 286 286 286 286 286 285 285 284 284 283 283 283 283 283 283 282 282 282 282 283 283 283 283 283 283 283 282 282 282 282 282 281 281 281 281 281 281
286 287 287 287 287 287 287 287 287 286 286 285 285 284 284 283 283 283 283 283 283 283 283 283 283 283 283 283 283 283 283 283 282 282 282 282 281 280 280 280 279 279
287 287 287 287 287 287 287 287 287 286 286 286 285 285 284 284 284 283 283 283 283 283 283 283 283 283 283 283 283 283 283 283 282 282 282 281 281 280 279 279 278 278
287 287 287 287 287 287 287 287 287 287 286 286 286 285 284 284 283 283 282 282 282 282 282 282 282 282 282 282 282 282 282 282 282 282 282 281 281 280 279 278 277 277
287 287 287 287 287 287 287 287 287 286 286 286 285 285 284 283 282 282 282 281 281 281 282 282 282 282 282 281 281 281 281 281 281 281 281 280 280 280 279 278 277 277
287 287 287 287 287 287 286 286 286 286 285 285 284 284 283 282 282 281 281 281 281 281 281 281 281 281 281 281 281 280 280 280 280 280 279 279 279 279 278 277 277 276
287 287 287 286 286 286 286 286 285 285 284 284 283 283 282 281 281 281 281 281 281 281 281 281 280 280 280 280 280 279 279 279 279 278 278 278 277 277 276 276 275 275
287 286 286 286 286 286 286 285 285 284 284 283 283 282 282 281 281 281 281 280 280 280 280 280 280 279 279 279 279 278 278 278 278 277 277 276 276 275 275 274 274 274
286 286 285 286 286 286 285 285 284 284 283 283 282 282 281 281 280 280 280 280 280 280 280 279 279 279 279 278 278 277 277 277 277 276 276 275 274 274 273 273 273 273
285 285 285 286 285 285 285 284 284 283 283 282 282 281 281 280 280 280 280 280 280 279 279 279 278 278 278 277 277 276 276 276 276 275 274 274 273 273 273 272 272 272
285 285 285 285 285 285 284 283 283 282 282 281 281 280 280 280 280 280 280 279 279 279 279 278 278 277 277 276 276 276 276 275 275 274 273 273 272 272 272 272 272 272
285 285 285 285 285 284 283 283 282 282 281 281 280 280 280 280 280 279 279 279 279 278 278 278 277 277 276 275 275 275 275 274 273 272 272 272 272 272 272 272 272 272
285 285 285 285 284 283 283 282 282 281 281 280 280 280 279 279 279 279 279 279 278 278 277 277 277 276 275 275 274 274 273 272 272 272 272 272 272 272 272 272 271 271
285 285 285 285 284 283 283 282 282 281 280 280 279 279 279 279 279 279 278 278 278 277 277 277 276 276 275 274 274 273 272 272 272 272 272 272 272 272 271 271 271 271
286 285 285 284 283 283 283 282 281 280 279 279 279 279 279 278 278 278 278 277 277 277 276 276 276 275 274 274 274 272 271 271 272 272 272 272 272 271 271 271 270 270
285 285 284 283 282 282 282 281 280 280 279 279 278 278 278 278 278 278 277 277 277 276 276 275 275 275 274 274 273 272 270 271 272 271 272 272 271 271 270 270 269 269
285 284 283 282 282 282 281 281 280 279 279 278 278 278 278 278 277 277 277 276 276 275 275 275 275 275 274 273 273 271 270 271 272 272 271 271 270 269 269 269 269 268
283 283 282 282 281 281 281 280 279 279 278 278 278 278 278 277 277 277 276 276 275 275 275 275 275 274 273 273 272 271 270 271 272 271 270 270 269 268 268 268 268 268
283 282 282 282 282 282 281 280 279 278 278 278 277 277 277 277 276 276 276 275 275 274 274 274 274 274 273 272 272 270 270 271 271 269 269 269 269 268 268 268 268 268
282 282 282 282 282 282 280 279 279 278 277 277 277 277 277 276 276 276 275 274 274 274 274 274 274 274 273 272 271 270 269 269 269 269 269 269 269 269 269 269 269 269
283 282 282 282 282 281 280 279 278 277 277 277 277 276 276 276 275 275 274 274 273 273 273 274 274 274 273 272 271 270 269 269 269 269 269 269 269 269 269 269 269 269
283 282 282 281 281 280 279 278 277 277 277 276 276 276 276 275 275 274 274 273 273 273 273 273 274 273 272 271 271 270 269 269 269 269 269 269 270 270 270 270 270 271
282 282 281 280 280 279 279 278 277 277 276 276 276 275 275 275 274 274 273 273 273 273 273 273 273 273 272 271 271 269 269 269 270 270 270 270 270 270 271 271 271 272
281 281 280 279 279 279 278 277 277 276 275 275 275 275 274 274 274 273 273 273 272 273 273 273 273 272 272 271 270 269 269 270 270 270 271 271 271 271 272 272 272 272
Wind_Speed
23 23 23 24 23 23 22 22 22 22 22 22 22 22 22 22 22 22 23 23 23 23 23 23 23 23 24 24 24 24 23 23 23 22 22 22 22 22 22 21 20 20
22 22 22 22 23 22 22 22 21 21 21 21 21 21 21 21 22 23 23 24 24 24 25 25 26 26 26 26 26 26 26 26 25 25 25 24 24 24 23 23 23 22
21 21 21 21 21 21 20 20 20 20 19 18 19 19 20 20 21 22 23 23 23 24 25 25 26 26 27 27 27 27 27 27 27 26 26 26 25 25 24 24 23 22
19 19 19 19 19 18 18 18 19 19 18 18 18 18 18 19 19 20 21 21 22 22 23 24 24 25 25 26 26 27 27 27 27 28 28 28 27 26 26 25 24 24
17 16 15 15 15 15 16 17 18 19 19 19 19 18 18 18 19 20 21 21 22 22 23 23 24 24 25 26 26 27 27 28 28 29 29 29 29 28 27 26 26 25
13 13 12 12 13 13 14 15 16 17 18 19 19 19 19 19 20 20 21 22 22 22 23 23 24 24 25 26 26 27 27 28 28 28 29 29 29 29 28 28 27 27
10 10 10 10 10 10 11 13 14 15 17 18 18 19 19 19 19 20 21 21 21 22 22 23 24 24 25 26 26 26 26 27 27 28 28 29 30 30 30 29 29 29
8 7 7 6 6 8 10 12 14 15 16 17 18 18 19 19 19 20 20 21 21 22 22 23 24 24 25 25 25 26 26 26 26 27 27 28 29 29 30 29 29 30
5 3 2 3 5 8 11 13 14 15 15 17 18 18 19 19 20 21 21 22 22 22 23 23 24 24 24 24 24 25 25 25 26 26 26 27 27 28 29 29 28 28
3 2 0 3 7 9 11 12 13 14 15 16 17 18 19 19 20 21 21 22 22 22 23 23 23 23 23 23 23 23 24 24 25 25 25 25 26 26 26 26 26 25
5 3 1 4 6 8 10 11 12 14 15 16 17 18 19 19 20 21 21 21 22 22 22 22 22 22 22 22 22 22 23 23 24 24 25 25 25 25 25 24 24 25
6 3 2 4 6 7 9 11 12 14 15 16 17 17 18 19 19 20 20 20 21 21 21 21 21 21 21 21 22 22 22 23 24 24 24 24 24 24 23 23 23 23
7 5 4 5 6 8 9 11 13 14 15 16 17 17 18 18 19 19 20 20 20 20 20 20 20 20 20 20 21 22 22 23 24 23 23 23 22 20 19 18 18 18
8 6 6 6 7 8 10 12 13 14 15 16 16 17 17 18 19 19 19 19 19 19 19 20 20 19 20 20 21 22 22 22 23 22 22 21 18 17 16 15 15 15
9 8 7 7 8 9 11 12 13 14 15 16 16 17 18 18 18 18 19 19 19 19 19 19 19 19 19 20 20 20 20 21 20 19 18 18 16 16 16 15 14 15
11 10 9 8 8 10 11 13 14 15 15 16 17 17 18 18 18 18 18 19 19 20 20 20 20 19 19 18 17 17 18 18 17 16 15 16 17 17 17 16 15 16
13 11 10 9 9 10 12 13 14 15 16 17 17 17 18 18 18 18 18 19 20 20 20 20 20 19 19 18 16 15 15 16 16 16 16 16 16 17 18 17 16 17
14 12 11 10 9 10 12 13 14 15 16 17 17 18 18 18 19 19 19 19 20 20 20 20 19 19 18 18 17 15 14 14 15 16 16 16 16 17 17 17 17 17
15 13 11 10 9 10 12 13 14 16 17 17 18 18 18 18 19 19 19 19 20 20 20 20 19 19 18 18 17 15 14 14 15 16 16 16 16 16 16 15 16 17
16 13 11 9 9 10 12 13 15 16 17 18 18 18 18 19 19 19 19 19 19 20 21 20 19 19 19 18 16 15 14 14 15 16 16 15 15 15 16 16 16 17
15 12 10 9 10 11 13 14 15 16 17 18 18 18 18 19 19 19 19 19 19 20 21 20 19 19 19 18 16 15 15 15 15 15 15 15 14 15 16 16 16 17
14 12 10 10 11 13 14 15 16 16 17 18 18 18 18 18 19 19 19 19 19 19 21 21 19 18 19 18 16 15 15 15 16 15 15 15 16 17 17 16 16 17
14 12 11 11 12 14 15 15 16 16 17 18 18 19 19 19 20 20 19 19 19 19 21 21 20 19 19 18 16 14 15 16 16 16 16 17 19 19 19 18 19 21
14 12 12 12 13 14 15 16 16 16 17 17 18 19 20 19 20 20 19 19 19 19 20 21 22 20 18 18 16 14 15 16 17 18 20 22 24 25 24 25 27 29
14 13 13 13 14 15 15 16 16 16 17 17 18 19 20 20 20 21 21 19 19 18 18 20 22 20 18 17 16 14 15 17 17 19 22 24 27 29 30 30 30 30
15 14 14 14 15 16 16 15 16 16 16 17 17 19 20 20 20 20 21 20 19 18 17 18 20 20 18 17 16 15 16 17 17 20 23 27 29 30 29 28 29 32
Wind_Direction
92 89 85 82 79 75 71 67 63 60 57 52 49 46 42 39 34 30 29 27 26 24 22 20 18 16 14 12 10 9 7 7 5 2 0 359 356 354 352 349 347 344
90 87 83 80 76 71 65 61 56 53 49 46 42 38 35 31 27 24 22 21 19 18 16 15 12 11 9 7 6 5 3 3 1 359 357 356 353 351 349 347 344 342
90 86 81 75 71 66 61 57 52 48 44 40 36 31 27 24 21 18 15 14 12 10 9 7 6 4 3 2 1 360 359 358 357 355 353 353 351 349 347 344 342 339
91 84 79 73 68 63 58 53 48 44 38 34 30 24 20 17 13 11 9 7 5 3 2 1 360 358 357 357 356 355 355 354 353 351 349 349 348 346 345 343 340 338
91 84 78 72 66 58 52 47 42 37 32 28 23 16 12 9 6 4 3 2 1 360 359 357 357 356 355 354 354 353 352 351 349 348 346 346 345 344 343 341 338 336
94 87 79 69 61 52 43 39 36 30 26 21 16 10 6 3 1 0 0 360 359 358 357 356 356 355 354 354 353 352 350 349 347 345 344 343 342 341 341 339 336 334
100 89 77 64 54 44 35 33 29 23 20 16 10 6 2 0 359 359 359 359 358 357 356 356 355 355 354 353 352 350 349 348 346 344 342 341 339 338 337 336 333 331
105 89 76 58 44 36 28 25 20 15 13 9 4 2 359 358 357 358 358 357 356 356 355 355 354 354 354 352 351 349 347 346 345 343 341 339 337 336 334 333 331 328
113 103 87 39 27 23 18 15 11 7 4 1 358 357 355 354 355 355 355 354 354 353 353 353 353 353 353 351 349 347 346 345 343 342 340 338 336 334 333 332 329 326
169 186 120 14 15 12 7 4 1 357 355 353 352 351 350 350 351 350 351 350 350 351 351 351 351 352 351 350 348 347 344 343 341 340 338 337 334 332 330 328 326 322
208 214 306 357 0 358 353 352 350 348 346 345 345 345 345 346 347 347 347 347 347 348 348 348 350 350 349 348 347 346 343 341 340 338 337 335 333 331 329 326 324 321
215 229 289 330 339 341 340 341 341 340 339 340 340 341 342 342 343 343 344 344 345 345 345 347 349 350 348 348 346 344 342 340 339 338 336 334 332 331 329 326 323 321
224 245 279 308 321 326 330 332 333 333 334 335 336 337 337 337 339 340 341 342 342 342 343 345 348 350 348 347 345 343 342 341 339 337 334 333 331 327 325 322 318 316
231 250 273 294 308 316 322 325 327 328 329 330 331 332 333 335 336 337 338 339 339 340 341 344 349 350 349 348 346 345 343 339 336 334 331 328 324 320 317 314 310 309
236 251 267 282 296 309 316 320 322 323 324 325 326 328 330 332 332 333 335 335 336 338 340 345 349 350 350 350 348 344 340 335 331 328 324 319 314 312 311 308 306 306
236 247 258 272 289 304 312 315 317 319 321 322 324 326 327 328 329 331 333 334 335 337 340 345 350 350 349 349 347 342 335 328 321 317 314 311 309 308 307 306 305 303
233 240 252 265 282 300 308 311 313 316 318 319 321 323 324 326 328 330 333 334 335 337 339 344 348 347 345 343 343 341 333 321 313 310 308 307 305 305 304 305 304 302
229 235 246 262 279 296 304 307 311 313 314 315 318 320 322 325 327 329 332 333 334 335 337 342 346 344 341 341 340 338 331 317 309 307 305 303 302 302 302 302 302 301
226 233 244 259 278 293 299 304 307 309 310 311 314 318 320 322 324 325 329 331 332 334 335 339 344 340 338 339 337 334 328 316 306 303 300 298 299 299 299 299 300 300
224 231 243 259 276 289 295 300 302 305 307 309 312 315 316 318 320 322 327 330 331 332 332 337 341 338 336 337 334 332 327 315 304 299 296 295 297 298 298 297 297 297
224 232 244 261 277 287 293 297 299 302 304 306 309 312 313 316 319 321 325 328 331 331 329 333 337 335 332 332 333 331 324 311 303 299 296 295 295 296 296 296 295 295
227 237 249 266 278 285 291 294 296 299 301 304 308 310 312 315 317 319 323 326 330 330 327 329 334 333 329 329 331 329 320 311 306 301 296 293 295 298 298 295 292 290
231 241 255 268 276 282 287 290 293 296 299 303 307 308 311 314 314 317 321 325 329 330 326 326 329 330 328 326 328 328 321 312 307 302 297 294 297 299 298 295 294 295
235 244 256 265 272 278 283 286 290 294 298 302 305 306 309 311 312 315 319 324 327 327 326 324 324 326 327 323 326 331 321 309 305 302 300 300 302 304 303 300 301 304
238 245 254 262 269 275 279 284 288 292 296 299 302 304 305 308 311 313 316 321 324 324 325 321 319 322 325 325 331 332 317 308 305 303 302 305 306 305 304 302 302 306
238 244 253 260 267 273 278 283 287 290 293 296 298 300 302 306 310 312 314 318 322 322 323 321 319 321 325 331 337 330 313 307 305 302 304 306 305 303 303 303 302 304